Thomasville, PA

2:11 AM EST on February 10, 2016 (GMT -0500)
York

Weather History for KTHV - May, 2014

Change the Weather History Date:

Sunday, May 11, 2014

  Actual Average Record
Temperature  
Mean Temperature 65 °F -  
Max Temperature 77 °F 80 °F 85 °F (1970)
Min Temperature 53 °F 51 °F 37 °F (2002)
Growing Degree Days 15 (Base 50)    
Moisture  
Dew Point 51 °F    
Average Humidity 61    
Maximum Humidity 96    
Minimum Humidity 28    
Precipitation  
Precipitation 0.00 in - - ()
Sea Level Pressure  
Sea Level Pressure 30.07 in    
Wind  
Wind Speed 4 mph (WNW)    
Max Wind Speed 12 mph    
Max Gust Speed 17 mph    
Visibility 10 miles    
Events      
Averages and records for this station are not official NWS values.
T = Trace of Precipitation, MM = Missing Value Source: NWS Daily Summary

Daily Weather History Graph

Daily Weather History Graph

Search for Another Location

Airport or City:

Trip Planner

Search our weather history database for the weather conditions in past years. The results will help you decide how hot, cold, wet, or windy it might be!

Date:

Astronomy

May. 11, 2014 Rise Set
Actual Time 5:56 AM EDT 8:11 PM EDT
Civil Twilight 5:26 AM EDT 8:42 PM EDT
Nautical Twilight 4:48 AM EDT 9:19 PM EDT
Astronomical Twilight 4:08 AM EDT 10:00 PM EDT
Moon 5:05 PM EDT (5/11) 4:00 AM EDT (5/11)
Length of Visible Light 15h 16m
Length of Day
14h 15m
Waxing Gibbous, 89% of the Moon is Illuminated
May 11
Waxing Gibbous
May 14
Full
May 21
Last Quarter
May 28
New
Jun 5
First Quarter

Hourly Weather History & Observations

Time (EDT) Temp. Dew Point Humidity Pressure Visibility Wind Dir Wind Speed Gust Speed Precip Events Conditions
12:53 AM 60.1 °F 57.0 °F 90% 29.98 in 10.0 mi NW 3.5 mph - N/A   Mostly Cloudy
1:53 AM 61.0 °F 57.0 °F 87% 29.98 in 10.0 mi Calm Calm - N/A   Mostly Cloudy
2:53 AM 62.1 °F 55.0 °F 78% 29.98 in 10.0 mi Calm Calm - N/A   Scattered Clouds
3:53 AM 57.0 °F 54.0 °F 89% 30.00 in 10.0 mi Calm Calm - N/A   Clear
4:53 AM 55.0 °F 53.1 °F 93% 30.02 in 10.0 mi WNW 4.6 mph - N/A   Clear
5:53 AM 53.1 °F 52.0 °F 96% 30.04 in 10.0 mi WNW 3.5 mph - N/A   Clear
6:53 AM 57.0 °F 55.0 °F 93% 30.08 in 10.0 mi WNW 3.5 mph - N/A   Clear
7:53 AM 62.1 °F 55.9 °F 80% 30.10 in 10.0 mi West 4.6 mph - N/A   Clear
8:53 AM 66.9 °F 53.1 °F 61% 30.11 in 10.0 mi NW 3.5 mph - N/A   Clear
9:53 AM 69.1 °F 50.0 °F 51% 30.12 in 10.0 mi Variable 3.5 mph - N/A   Clear
10:53 AM 72.0 °F 48.9 °F 44% 30.12 in 10.0 mi WNW 10.4 mph - N/A   Clear
11:53 AM 73.0 °F 46.9 °F 39% 30.12 in 10.0 mi NW 9.2 mph 17.3 mph N/A   Clear
12:53 PM 73.9 °F 48.0 °F 40% 30.13 in 10.0 mi NNW 11.5 mph - N/A   Clear
2:53 PM 75.9 °F 48.9 °F 38% 30.10 in 10.0 mi NW 9.2 mph - N/A   Clear
3:53 PM 75.0 °F 46.0 °F 36% 30.08 in 10.0 mi NW 3.5 mph - N/A   Clear
4:53 PM 77.0 °F 48.0 °F 36% 30.07 in 10.0 mi West 5.8 mph - N/A   Clear
5:53 PM 77.0 °F 41.0 °F 28% 30.07 in 10.0 mi WNW 5.8 mph - N/A   Clear
6:53 PM 75.9 °F 44.1 °F 32% 30.06 in 10.0 mi WNW 4.6 mph - N/A   Clear
7:53 PM 69.1 °F 50.0 °F 51% 30.08 in 10.0 mi Calm Calm - N/A   Clear
8:53 PM 61.0 °F 50.0 °F 67% 30.09 in 10.0 mi Calm Calm - N/A   Clear
9:53 PM 61.0 °F 50.0 °F 67% 30.11 in 10.0 mi Calm Calm - N/A   Clear
10:53 PM 64.9 °F 48.9 °F 56% 30.11 in 10.0 mi SSW 6.9 mph - N/A   Clear
11:53 PM 64.9 °F 48.9 °F 56% 30.11 in 10.0 mi SSW 6.9 mph - N/A   Clear